Probability
0 0 0 1 2 2 1 0 0 0 0 0 0 0 0 0 0 0 0 0 0 0 0 0 0 0 0 0 0 1 2 2 2 1 0 0 0 0 0 0 0 0 0
0 0 0 0 1 1 0 0 0 0 0 0 0 0 0 0 0 0 0 0 0 0 0 0 0 0 0 0 0 1 1 1 1 0 0 0 0 0 0 0 0 0 0
0 0 0 0 0 0 0 0 0 0 0 0 0 0 0 0 0 0 0 0 0 0 0 0 0 0 0 0 0 0 0 0 0 0 0 0 0 0 0 0 0 0 0
0 0 0 0 0 0 0 0 0 0 0 0 0 0 0 0 0 0 0 0 0 0 0 0 0 0 0 0 0 0 0 0 0 0 0 0 0 0 0 0 0 0 0
0 0 0 0 0 0 0 0 0 0 0 0 0 0 0 0 0 0 0 0 0 0 0 0 0 0 0 0 0 0 0 0 0 0 0 0 0 0 0 0 0 0 0
0 0 0 0 0 0 0 0 0 0 0 0 0 0 0 0 0 0 0 0 0 0 0 0 0 0 0 0 0 0 0 0 0 0 0 0 0 0 0 0 0 0 0
0 0 0 0 0 0 0 0 0 0 0 0 0 0 0 0 0 0 0 0 0 0 0 0 0 0 0 0 0 0 0 0 0 0 0 0 0 0 0 0 0 0 0
0 0 0 0 0 0 0 0 0 0 0 0 0 0 0 0 0 0 0 0 0 0 0 0 0 0 0 0 0 0 0 0 0 0 0 0 0 0 0 0 0 0 0
0 0 0 0 0 0 0 0 0 0 0 0 0 0 0 0 0 0 0 0 0 0 0 0 0 0 0 0 0 0 0 0 0 0 0 0 0 0 0 0 0 0 0
0 0 0 0 0 0 0 0 0 0 0 0 0 0 0 0 0 0 0 0 0 0 0 0 0 0 0 0 0 0 0 0 0 0 0 0 0 0 0 0 0 0 0
0 0 0 0 0 0 0 0 0 0 0 0 0 0 0 0 0 0 0 0 0 0 0 0 0 0 0 0 0 0 0 0 0 0 0 0 0 0 0 0 0 0 0
0 0 0 0 0 0 0 0 0 0 0 0 0 0 0 0 0 0 0 0 0 0 0 0 0 0 0 0 0 0 0 0 0 0 0 0 0 0 0 0 0 0 0
0 0 0 0 0 0 0 0 0 0 0 0 0 0 0 0 0 0 0 0 0 0 0 0 0 0 0 0 0 0 0 0 0 0 0 0 0 0 0 0 0 0 0
0 0 0 0 0 0 0 0 0 0 0 0 0 0 0 0 0 0 0 0 0 0 0 0 0 0 0 0 0 0 0 0 0 0 0 0 0 0 0 0 0 0 0
0 0 0 0 0 0 0 0 0 0 0 0 0 0 0 0 0 0 0 0 0 0 0 0 0 0 0 0 0 0 0 0 0 0 0 0 0 0 0 0 0 0 0
0 0 0 0 0 0 0 0 0 0 0 0 0 0 0 0 0 0 0 0 0 0 0 0 0 0 0 0 0 0 0 0 0 0 0 0 0 0 0 0 0 0 0
0 0 0 0 0 0 0 0 0 0 0 0 0 0 0 0 0 0 0 0 0 0 0 0 0 0 0 0 0 0 0 0 0 0 0 0 0 0 0 0 0 0 0
0 0 0 0 0 0 0 0 0 0 0 0 0 0 0 0 0 0 0 0 0 0 0 0 0 0 0 0 0 0 0 0 0 0 0 0 0 0 0 0 0 0 0
0 0 0 0 0 0 0 0 0 0 0 0 0 0 0 0 0 0 0 0 0 0 0 0 0 0 0 0 0 0 0 0 0 0 0 0 0 0 0 0 0 0 0
0 0 0 0 0 0 0 0 0 0 0 0 0 0 0 0 0 0 0 0 0 0 0 0 0 0 0 0 0 0 0 0 0 0 0 0 0 0 0 0 0 0 0
0 0 0 0 0 0 0 0 0 0 0 0 0 0 0 0 0 0 0 0 0 0 0 0 0 0 0 0 0 0 0 0 0 0 0 0 0 0 0 0 0 0 0
0 0 0 0 0 0 0 0 0 0 0 0 0 0 0 0 0 0 0 0 0 0 0 0 0 0 0 0 0 0 0 0 0 0 0 0 0 0 0 0 0 0 0
0 0 0 0 0 0 0 0 0 0 0 0 0 0 0 0 0 0 0 0 0 0 0 0 0 0 0 0 0 0 0 0 0 0 0 0 0 0 0 0 0 0 0
0 0 0 0 0 0 0 0 0 0 0 0 0 0 0 0 0 0 0 0 0 0 0 0 0 0 0 0 0 0 0 0 0 0 0 0 0 0 0 0 0 0 0
0 0 0 0 0 0 0 0 0 0 0 0 0 0 0 0 0 0 0 0 0 0 0 0 0 0 0 0 0 0 0 0 0 0 0 0 0 0 0 0 0 0 0
0 0 0 0 0 0 0 0 0 0 0 0 0 0 0 0 0 0 0 0 0 0 0 0 0 0 0 0 0 0 0 0 0 0 0 0 0 0 0 0 0 0 0
Wind_Speed
3 3 2 1 2 2 2 3 3 2 2 2 2 2 2 2 2 1 2 3 4 4 4 3 4 4 3 4 5 5 6 4 4 3 2 1 1 1 1 2 2 3 3
1 1 1 1 1 1 2 2 3 3 3 2 2 2 2 1 2 1 2 3 4 4 4 4 4 4 4 4 5 5 4 3 4 3 3 2 2 2 2 2 2 3 3
2 1 1 0 1 1 1 1 2 2 3 2 2 2 1 1 1 2 2 3 3 4 4 5 5 5 5 5 5 6 6 5 3 3 3 3 4 2 3 3 3 3 3
2 1 1 1 1 1 1 2 2 3 3 3 3 4 3 2 2 2 2 3 4 4 4 4 4 5 4 5 5 5 4 6 5 3 2 2 1 3 3 3 3 3 3
1 1 1 1 1 0 0 1 2 3 3 4 4 4 3 3 2 2 3 3 3 3 3 4 4 4 4 5 5 5 5 5 5 4 3 2 1 2 2 3 4 4 3
1 1 1 1 0 1 0 1 1 2 3 4 4 4 4 4 3 3 3 3 3 3 4 4 5 5 5 5 6 5 6 5 5 5 4 3 3 3 3 3 3 4 3
0 1 1 1 1 0 0 1 1 1 2 3 4 4 5 4 5 4 4 4 3 3 4 5 5 5 5 5 5 5 6 6 6 6 5 4 3 2 3 3 3 3 2
1 1 1 1 1 1 1 1 1 1 2 2 3 3 4 3 3 4 4 4 3 4 4 5 6 6 6 5 5 5 5 5 6 6 6 4 4 3 3 3 3 3 3
1 1 1 1 2 1 1 1 1 2 2 2 2 3 3 3 3 4 4 3 3 3 4 5 5 5 5 6 6 5 6 5 6 6 6 5 4 3 3 3 4 4 4
1 1 1 2 2 2 2 1 2 2 2 2 2 2 2 2 2 3 3 4 4 3 4 5 5 5 5 6 6 5 6 6 6 5 6 6 4 4 3 4 4 4 4
1 2 2 2 2 2 2 2 2 2 1 1 2 2 2 2 2 2 3 3 3 3 4 4 5 5 5 6 6 6 7 7 7 6 6 6 5 4 4 3 4 4 3
1 2 2 3 3 3 3 3 2 2 2 1 1 1 1 1 2 2 2 3 3 3 4 4 4 4 5 5 6 6 7 7 7 7 6 6 5 6 5 4 5 4 4
1 1 2 3 3 3 3 3 3 3 2 1 1 1 1 2 2 2 2 2 2 3 3 3 4 4 4 5 5 6 6 6 7 6 7 7 7 7 5 5 5 4 3
0 1 2 2 3 3 4 4 3 3 2 1 1 1 1 2 2 2 2 2 2 2 2 3 3 3 3 4 4 5 5 5 5 5 6 6 7 7 7 5 6 5 5
1 2 2 2 3 3 4 4 4 3 2 1 1 1 1 1 1 1 1 1 1 2 2 2 2 2 2 3 3 4 4 5 4 4 5 5 5 6 6 5 6 6 5
2 3 3 3 3 4 4 4 4 3 2 2 2 1 1 1 1 1 1 1 1 1 2 2 2 2 2 2 3 3 4 4 5 5 4 4 5 6 8 8 8 8 7
3 3 3 3 3 4 4 4 4 3 3 2 2 2 1 1 1 1 1 1 1 1 1 2 2 2 2 3 4 4 4 4 4 4 4 4 4 6 6 7 8 8 9
3 4 3 4 4 4 4 3 3 3 2 2 2 2 2 2 2 1 1 2 1 1 1 2 2 2 2 3 4 4 4 4 4 4 5 5 5 6 6 5 6 6 7
3 3 4 4 3 3 3 3 2 2 2 3 3 2 2 2 2 2 2 2 2 1 1 2 2 2 2 3 4 4 3 3 4 4 4 5 6 6 7 6 6 6 5
2 3 3 3 3 3 3 2 2 2 3 3 3 3 2 2 2 2 2 2 2 2 1 2 2 2 2 3 4 5 3 3 3 3 4 5 6 6 8 7 6 7 5
3 3 3 2 3 3 2 2 2 3 4 3 3 3 2 2 2 2 2 2 2 2 1 2 2 2 2 3 4 5 3 3 3 3 3 3 6 7 8 7 6 6 5
3 3 2 3 3 3 2 2 3 4 3 3 3 3 3 2 2 2 2 2 1 1 1 1 1 1 1 2 3 4 3 3 3 3 3 3 5 7 7 6 6 6 5
3 3 3 3 3 3 3 2 3 3 3 2 2 2 2 2 2 2 2 1 1 1 1 1 1 1 1 1 2 3 3 3 2 2 3 4 5 5 5 5 6 5 4
4 3 3 3 4 4 4 3 4 3 3 3 3 2 2 2 2 2 2 1 1 1 1 1 1 1 1 1 1 1 1 2 1 1 2 2 2 2 2 3 3 3 3
4 4 3 3 4 4 5 5 4 3 3 3 3 3 3 2 2 2 2 2 2 2 2 2 1 2 2 2 3 3 2 2 1 1 0 0 1 1 1 1 1 2 2
4 4 4 4 5 5 5 5 5 4 3 2 3 3 2 2 2 1 2 3 2 3 3 3 3 2 2 3 3 3 2 2 1 1 1 1 1 1 1 2 2 2 2
Wind_Direction
286 282 266 228 206 193 203 187 183 168 166 178 183 178 181 179 175 183 188 189 186 184 181 172 172 177 178 176 171 156 150 150 152 139 125 106 117 169 186 196 185 172 175
298 282 280 188 179 182 193 188 187 174 177 193 196 201 198 203 188 183 194 191 188 191 191 183 183 181 179 181 175 168 162 158 178 171 161 174 191 198 208 205 204 189 175
280 277 270 241 208 213 213 201 201 189 184 185 176 162 161 166 179 197 201 201 195 192 194 193 191 186 181 188 190 188 180 171 184 206 198 192 198 170 188 205 203 198 186
289 305 296 260 244 237 222 212 203 191 186 182 186 185 192 201 216 212 208 199 201 198 197 194 196 193 192 194 197 198 198 181 180 191 248 271 189 182 170 188 199 199 200
272 283 296 282 237 220 274 240 198 193 187 189 196 201 211 216 209 205 206 200 199 203 205 200 196 198 201 199 200 197 202 197 192 188 187 194 207 224 197 190 185 190 201
250 286 6 24 70 63 195 243 199 188 186 194 200 208 213 210 204 209 206 206 202 206 212 209 203 204 207 203 204 201 205 208 206 201 199 198 198 204 208 205 193 200 190
297 351 13 5 0 333 220 228 200 188 197 203 208 214 216 211 210 211 209 207 205 208 213 213 210 208 210 207 207 206 210 212 212 211 210 213 222 217 215 204 199 212 198
354 348 352 340 332 320 293 270 242 219 206 210 219 226 225 217 218 218 217 213 214 218 215 218 218 212 206 203 206 209 211 212 215 220 217 217 216 210 210 206 194 201 209
335 342 351 346 343 328 297 280 252 238 220 215 217 225 228 227 228 226 222 219 222 222 215 216 216 211 205 202 202 210 210 212 216 220 219 219 215 213 214 215 211 209 215
333 343 350 351 346 334 312 291 271 257 229 217 219 228 228 234 236 223 222 225 223 218 211 210 211 208 204 202 203 210 210 213 215 216 216 217 213 211 209 214 222 229 228
337 344 350 352 351 339 332 313 291 287 269 228 226 233 231 231 234 228 229 229 224 217 214 210 209 207 206 206 208 211 207 212 212 211 212 214 211 207 206 208 211 218 217
356 355 357 359 357 349 340 323 302 288 285 256 231 235 238 223 228 240 239 231 224 222 219 213 208 207 209 209 212 212 210 212 211 211 208 210 205 209 205 204 208 210 210
357 356 359 3 355 347 340 328 315 299 282 271 252 241 239 230 229 240 245 237 225 223 221 217 214 213 213 213 216 215 213 215 216 212 211 208 203 207 206 205 206 206 208
305 341 347 353 349 342 337 331 325 312 297 266 247 247 255 251 251 249 243 241 232 223 220 218 215 215 214 215 215 214 212 213 215 214 215 212 209 211 205 204 206 201 200
304 327 329 335 337 337 336 334 333 327 310 277 258 258 265 259 256 257 256 244 233 223 214 210 207 208 210 215 211 212 213 209 207 211 215 217 215 215 209 204 203 199 202
300 316 319 321 323 326 326 327 327 326 311 293 285 286 276 257 257 266 260 243 235 224 209 204 206 212 215 194 200 211 210 209 209 211 213 213 211 211 210 214 214 210 208
297 301 301 304 311 315 315 314 316 318 306 295 295 292 280 273 272 267 260 251 235 223 225 224 220 225 221 195 200 211 212 210 213 214 213 215 215 214 216 215 214 221 226
296 301 305 307 310 312 311 310 314 314 315 309 305 308 301 295 294 280 274 274 261 242 240 236 232 235 231 201 206 211 220 218 217 220 221 220 219 218 215 215 219 225 227
295 302 306 305 305 310 314 312 318 324 332 330 324 317 301 287 284 276 272 277 270 262 259 249 238 236 234 209 212 216 221 221 224 228 229 227 224 213 206 211 217 224 231
320 317 314 312 312 317 315 311 319 326 326 325 319 314 305 286 273 269 274 283 270 265 262 262 260 253 253 225 217 221 220 223 227 228 231 228 228 215 208 215 217 223 227
337 334 326 325 327 325 317 316 327 326 325 325 321 318 315 306 294 284 277 269 265 257 257 265 271 264 261 229 221 226 228 224 225 228 230 227 219 221 220 226 230 229 228
349 347 344 342 342 340 327 321 328 331 331 331 331 330 328 328 314 300 293 278 261 253 258 262 275 281 270 252 230 232 244 251 234 235 235 227 220 229 231 233 232 226 226
351 348 349 351 354 353 343 333 335 337 338 343 338 337 337 335 324 311 302 297 283 273 280 272 271 291 299 283 249 242 248 260 258 248 236 228 225 233 233 225 221 219 220
351 353 356 354 352 350 349 348 343 339 343 345 342 341 339 341 340 338 324 309 295 283 275 268 272 288 290 287 276 260 250 241 250 238 204 209 207 211 208 209 216 224 225
358 359 1 1 352 352 354 352 350 347 350 351 347 344 341 336 343 351 346 325 320 309 288 273 270 268 280 300 308 301 284 276 266 277 265 242 202 198 203 218 232 228 222
1 3 2 357 353 355 356 354 349 347 351 349 348 343 337 334 334 343 358 15 346 345 328 316 300 301 299 305 307 313 316 305 251 274 224 219 225 224 227 231 235 236 238